Wind_Speed
34 34 35 36 36 37 37 38 39 39 41 42 41 41 41 41 41 41 41 41 42 44 46 48 50 50 48 48 48 43 38 38 35 31 31 30 30 29 27 27 28 28 25 19 15 11 9 9 8 7 8 10 10 10 10 10 13 15 18 20 22 24 27
34 35 36 37 38 38 38 38 39 40 41 42 41 41 41 41 41 40 40 40 42 45 47 50 51 50 48 47 47 43 38 37 35 31 30 29 28 28 27 26 26 27 28 24 18 14 11 11 10 10 11 12 12 12 11 12 15 15 18 21 22 24 29
35 36 37 38 39 38 37 38 39 40 40 41 41 41 41 41 40 40 39 40 42 45 47 50 51 49 47 47 47 44 38 37 35 31 29 28 26 26 26 25 25 26 26 24 20 17 14 12 12 13 12 13 13 12 13 15 18 18 20 22 23 25 28
36 37 38 39 39 38 37 38 39 39 40 41 41 40 40 40 40 39 39 40 42 45 48 50 51 49 47 47 48 45 40 36 34 31 29 29 27 25 25 24 25 25 24 21 18 16 14 12 13 16 15 15 14 13 14 16 18 20 22 24 25 25 24
36 37 38 39 39 37 36 37 39 39 40 41 41 40 40 40 39 38 38 40 42 45 48 51 51 49 47 47 48 45 41 36 33 32 29 29 29 28 26 24 23 23 22 18 14 12 12 13 15 17 17 15 14 14 12 13 17 20 22 23 24 23 23
36 37 38 38 39 37 35 37 38 39 40 41 41 40 39 39 38 37 38 40 42 44 48 50 51 49 47 48 48 45 41 36 33 31 29 29 31 31 30 27 23 20 19 17 14 13 13 15 16 15 15 15 15 14 12 12 16 20 20 21 19 16 18
35 37 37 38 38 36 35 36 38 39 40 41 40 39 39 38 38 37 38 39 41 44 47 50 51 49 47 47 48 46 43 39 34 30 29 30 32 34 33 29 25 21 19 17 16 17 17 17 17 15 14 15 17 15 12 11 15 19 18 15 10 7 11
35 36 37 38 38 36 34 36 38 39 40 41 40 39 38 38 37 37 38 39 40 42 46 50 51 49 47 47 48 47 44 41 36 30 27 28 31 36 34 29 26 23 20 19 19 18 18 18 19 17 14 14 16 15 13 12 14 16 13 8 5 4 8
35 36 36 37 37 35 34 36 38 39 40 40 40 38 38 38 37 37 37 38 39 41 45 49 51 49 48 47 47 48 46 43 39 31 25 25 29 34 32 28 28 28 26 23 22 21 21 22 22 20 18 18 19 18 15 13 12 12 10 8 6 8 11
35 36 36 37 36 34 33 35 37 39 40 40 39 37 37 37 36 36 36 37 38 40 44 48 50 50 48 47 47 48 48 46 44 38 30 28 30 31 30 28 29 32 31 27 24 24 25 24 22 20 20 19 18 17 14 12 11 10 7 9 11 13 14
34 35 36 36 35 33 32 34 37 39 40 40 39 37 37 36 35 35 35 36 37 39 42 46 49 49 48 48 48 49 50 48 47 44 38 35 35 34 33 32 31 29 28 24 22 22 20 20 20 20 19 17 16 15 11 11 11 9 7 10 14 15 14
34 35 36 36 34 32 32 34 37 39 39 39 38 37 36 36 35 34 34 35 36 37 41 44 47 48 48 48 49 49 50 50 48 47 43 39 38 38 38 37 33 29 26 24 22 21 21 22 22 20 17 16 16 15 10 11 11 10 9 11 13 15 16
34 35 35 35 34 32 32 33 36 38 38 39 38 36 35 35 34 33 34 34 34 36 39 42 44 46 47 47 48 49 51 51 50 49 46 42 39 38 39 38 35 32 30 28 27 27 26 25 23 19 15 13 14 16 14 14 14 13 12 13 13 14 15
33 35 35 34 33 31 31 33 35 37 38 38 38 36 34 34 33 32 33 33 33 34 36 39 42 44 45 45 46 48 49 51 51 50 48 45 42 40 38 37 36 33 31 30 30 30 29 26 23 20 17 13 14 17 19 18 17 16 16 15 14 13 12
33 34 35 33 32 30 30 32 35 37 38 38 37 36 34 33 33 32 32 32 32 33 34 37 39 41 42 43 44 45 47 48 49 50 49 47 45 43 41 38 36 34 31 29 29 28 28 26 24 21 18 17 17 18 17 17 18 18 16 15 13 11 10
32 34 34 33 31 30 30 32 34 36 37 38 37 35 33 32 32 31 30 31 31 31 32 34 37 39 40 40 41 43 44 46 47 48 48 47 46 44 42 40 38 36 33 29 27 26 24 23 23 22 21 21 21 21 17 15 16 16 14 13 12 11 11
32 33 33 32 30 29 30 31 33 35 36 37 36 34 33 32 31 31 30 30 30 30 31 32 34 37 38 38 39 40 41 43 45 46 46 46 46 45 42 40 39 38 35 31 28 25 23 21 20 20 20 20 21 22 20 18 17 16 15 15 15 15 14
31 32 32 31 28 28 29 30 32 34 35 36 35 34 32 31 31 30 29 28 28 29 29 30 32 34 36 36 37 37 38 39 41 43 44 45 45 45 44 42 40 38 36 33 29 26 24 21 20 19 19 19 20 20 20 20 19 19 19 19 20 19 18
30 31 31 30 27 28 29 30 31 33 34 35 35 33 32 30 30 30 29 28 27 28 28 28 30 32 33 34 35 35 36 36 37 39 41 42 43 44 44 43 41 39 36 33 31 29 26 23 20 19 18 18 19 19 19 18 18 18 18 19 19 18 17
30 31 30 28 26 27 29 30 31 32 33 34 34 33 31 30 29 28 28 27 27 27 26 27 28 30 31 32 33 34 34 34 35 36 38 39 40 41 42 42 41 40 37 33 31 29 27 24 22 20 18 17 17 17 17 16 15 15 15 15 14 14 13
29 30 29 26 25 27 28 29 30 31 32 33 33 32 31 29 28 27 27 27 26 26 26 25 26 28 29 30 31 32 33 33 33 33 34 36 37 38 39 40 40 39 38 35 32 29 26 24 22 20 18 16 14 14 14 13 12 13 12 11 11 10 9
28 29 28 25 24 26 28 29 30 30 31 32 32 32 30 29 27 27 26 26 25 25 25 25 25 25 27 28 28 29 30 31 31 31 32 32 34 35 36 36 37 37 37 36 35 32 28 24 21 18 17 15 14 12 11 10 10 10 10 9 8 8 8
28 28 26 24 23 26 27 28 29 30 30 31 31 31 30 28 27 27 26 25 25 24 24 24 24 24 24 25 26 27 28 29 29 30 30 30 30 31 32 32 33 34 35 35 35 34 32 28 24 20 16 14 12 11 10 9 8 7 7 7 6 6 6
27 27 25 22 22 25 27 28 29 29 30 30 30 30 29 28 28 27 26 25 24 24 23 23 23 22 22 23 24 25 26 27 27 28 28 28 28 28 28 29 30 31 32 32 33 32 32 31 29 26 21 17 13 10 8 7 6 5 5 4 4 4 4
26 27 24 22 22 24 26 27 28 29 29 30 30 29 29 28 27 26 26 25 24 24 23 22 22 22 21 21 22 23 24 24 25 26 26 26 27 27 27 27 27 27 28 29 29 30 30 30 30 29 27 24 20 15 11 8 5 4 3 2 2 3 3
26 26 23 21 22 24 25 27 27 28 29 29 29 28 28 28 27 26 25 25 24 24 23 22 21 21 21 20 20 21 22 22 23 23 24 25 25 25 26 26 26 25 25 25 26 26 27 28 28 28 28 27 26 23 19 14 9 6 4 4 4 4 5
25 25 22 20 21 23 25 26 27 27 28 28 28 28 28 27 27 25 24 24 24 23 23 22 21 21 20 19 19 19 20 21 21 21 22 23 23 24 24 24 24 24 24 23 23 23 24 24 25 26 26 26 26 26 24 21 16 11 7 6 7 7 7
25 23 20 19 21 23 24 26 26 27 28 28 28 28 27 27 27 26 24 23 23 23 23 22 22 21 20 20 19 18 18 18 19 20 20 20 21 22 22 23 23 23 23 23 23 22 22 22 23 23 24 25 25 25 24 24 22 19 13 8 7 9 10
24 22 19 18 20 22 23 25 26 26 27 28 28 28 28 27 27 26 24 22 22 22 23 23 22 21 21 20 19 18 17 17 18 18 19 19 19 20 21 21 21 22 22 22 22 22 21 21 21 21 22 23 24 24 24 24 24 23 20 15 9 8 10
23 21 18 17 19 21 22 23 25 26 27 28 29 29 28 28 27 26 25 23 22 22 22 22 22 22 22 21 20 19 18 17 17 17 18 18 18 18 19 19 20 20 21 20 21 21 21 21 20 20 20 21 22 23 23 24 24 24 24 22 16 10 9
23 20 17 17 18 20 21 22 23 25 26 27 29 30 30 29 28 27 26 25 23 22 21 21 22 22 22 22 21 20 19 17 17 16 17 17 17 17 18 18 18 19 19 20 20 20 20 20 20 20 20 20 21 21 22 23 24 25 25 24 22 16 10
23 20 17 16 18 19 20 22 23 24 25 26 28 29 30 30 29 29 28 27 25 23 22 22 22 23 23 22 21 20 19 18 17 16 16 17 17 17 17 17 17 17 18 19 19 19 19 19 20 20 20 20 20 21 21 22 23 24 25 26 26 23 15
22 20 17 16 17 18 20 21 22 23 24 25 27 29 30 31 30 29 28 28 26 25 23 23 23 25 25 23 21 20 20 19 18 17 16 17 17 17 17 17 17 17 17 18 18 19 19 19 20 20 20 20 20 21 21 21 22 23 25 26 28 28 22
22 20 17 16 17 18 19 21 22 22 23 24 26 28 30 31 30 29 28 27 27 26 24 23 25 27 27 24 21 20 19 19 18 17 17 17 17 17 17 17 17 16 16 17 17 18 19 19 20 20 20 20 20 20 21 21 22 22 24 26 28 30 27
22 21 18 17 17 18 20 21 22 23 23 24 26 27 29 31 31 30 28 27 26 25 24 23 25 28 28 25 22 20 19 19 18 18 17 17 17 17 17 17 17 16 16 16 16 17 18 18 19 20 20 20 19 19 20 21 22 22 24 26 28 30 30
22 21 19 17 18 19 20 21 23 23 24 24 25 27 29 31 31 30 29 27 25 24 22 22 24 27 28 26 23 21 19 19 18 18 17 17 17 17 17 17 17 16 16 15 16 16 16 17 18 19 20 20 20 19 20 21 22 23 24 26 28 30 31
22 22 20 19 18 19 20 22 23 24 24 25 26 27 29 30 31 31 30 27 25 23 21 21 23 26 27 25 23 21 20 19 19 18 18 17 17 17 17 17 17 17 16 16 15 15 16 16 17 18 20 20 21 20 20 21 22 23 24 26 28 30 31
Wind_Direction
357 355 355 354 353 352 351 351 352 353 353 352 351 352 354 355 354 357 360 360 0 3 3 2 1 0 360 1 4 6 4 6 7 5 11 16 15 14 18 25 27 28 30 29 30 36 36 52 66 62 75 92 109 129 139 142 147 148 150 158 165 167 166
357 355 355 356 355 354 353 353 353 354 354 353 353 354 356 356 356 359 1 1 3 6 6 5 3 2 2 3 6 7 7 8 9 9 15 20 22 21 22 28 32 34 36 35 38 45 51 69 68 51 63 79 99 132 141 141 147 145 146 155 162 162 159
356 355 356 357 357 356 355 354 355 355 355 354 355 356 357 357 358 1 3 4 7 10 9 7 5 3 4 6 8 9 9 10 10 13 18 21 25 26 25 29 33 35 37 39 47 56 60 77 73 56 70 89 99 125 137 137 143 142 144 152 157 158 158
356 356 357 357 357 357 356 356 356 356 355 355 356 358 358 358 360 2 4 6 10 12 11 8 6 6 7 9 10 10 11 11 12 16 20 22 25 26 25 23 26 33 38 42 54 61 59 72 78 68 74 91 102 117 129 134 139 141 145 150 153 154 154
356 356 357 357 357 357 357 357 357 356 356 356 358 359 359 360 1 3 6 9 13 15 13 10 8 7 9 12 13 12 12 11 13 18 21 25 26 25 23 20 21 33 41 41 46 52 57 66 78 86 88 91 102 110 118 131 136 138 143 148 154 158 156
356 357 357 357 357 357 358 358 358 357 357 358 359 0 1 1 2 4 7 11 15 16 14 13 11 9 11 15 15 15 14 11 13 19 22 25 26 24 21 19 20 32 43 46 46 50 64 70 72 90 102 103 110 109 107 122 135 138 138 142 151 166 171
356 357 358 357 357 358 359 359 359 358 358 359 0 1 1 2 2 4 9 13 17 17 15 14 13 12 13 17 17 17 16 14 13 17 21 23 23 21 20 23 29 41 51 57 58 57 63 69 73 85 97 107 114 112 108 117 135 140 133 127 131 167 185
356 357 358 357 358 359 360 -0 359 359 359 0 1 1 2 3 3 5 10 15 18 18 16 16 15 14 15 18 19 19 20 20 17 15 17 21 23 23 25 32 41 52 62 66 67 64 59 63 74 85 93 102 106 104 105 116 137 141 127 107 88 137 168
355 357 358 358 358 359 0 0 -0 360 0 1 1 1 3 4 4 7 12 16 19 19 17 18 18 16 17 20 21 21 22 24 25 22 21 24 26 29 35 42 48 56 61 61 64 65 67 72 78 85 90 92 92 92 97 109 136 144 114 84 86 119 146
355 356 358 358 359 0 1 1 1 1 1 2 2 2 3 5 5 8 13 17 19 19 18 18 19 19 19 21 22 23 23 25 28 29 32 35 35 40 49 53 53 56 57 61 70 78 82 82 79 82 88 91 88 87 95 107 134 150 109 77 99 129 152
354 356 358 359 359 1 2 1 1 2 2 2 3 3 4 5 6 9 13 17 20 20 19 19 21 21 21 22 23 25 26 27 29 31 37 44 45 47 54 57 57 58 60 65 74 75 71 62 60 69 82 89 81 76 97 123 137 150 125 92 104 124 145
354 356 358 359 360 1 2 2 2 3 3 3 3 4 4 5 7 10 13 17 20 21 19 20 22 24 24 24 25 27 29 29 30 33 38 45 47 45 48 53 55 56 57 59 58 54 49 49 58 70 81 84 67 56 84 128 137 141 131 113 112 114 119
354 356 359 360 1 2 3 2 3 3 3 3 5 5 5 6 8 10 13 17 20 21 20 20 23 25 26 26 26 27 29 30 31 33 37 42 44 43 43 45 48 49 49 49 47 47 47 51 59 64 70 70 50 47 75 108 119 122 118 112 114 111 108
354 356 359 1 2 3 3 3 3 3 3 4 5 5 5 6 8 11 13 17 20 22 21 20 23 26 28 28 27 27 29 30 31 31 34 38 42 43 41 40 41 43 44 44 42 42 43 47 51 54 55 51 43 52 73 92 104 110 112 113 115 113 111
355 356 359 1 3 4 4 3 3 3 4 5 6 6 6 7 8 11 14 17 19 22 22 21 23 26 28 28 28 27 28 30 31 32 32 35 39 42 43 41 40 39 41 44 44 43 45 47 50 53 51 49 58 69 79 94 107 114 117 121 122 119 117
355 357 359 2 3 5 5 4 3 3 4 5 7 7 6 7 8 10 14 16 18 21 22 22 23 26 27 28 29 29 29 30 32 33 33 34 36 39 42 43 43 42 41 43 46 48 51 54 56 57 56 57 68 79 87 102 115 120 124 128 129 127 129
356 357 0 2 4 6 5 4 4 3 4 5 7 7 7 7 8 10 13 16 18 19 21 22 23 25 27 27 29 30 30 30 31 32 34 34 35 36 38 41 43 43 42 43 46 50 54 59 62 62 63 66 72 78 83 92 100 106 112 118 121 122 128
357 358 1 3 5 6 5 4 4 4 4 4 6 8 8 8 8 10 12 15 17 18 20 22 23 25 26 26 27 29 30 31 31 32 33 35 36 36 37 38 40 42 42 42 45 49 53 55 57 62 69 74 76 78 82 85 88 91 95 100 104 109 115
358 359 1 3 5 6 5 5 4 4 4 4 5 8 9 8 8 10 11 13 16 17 18 20 22 24 25 25 25 27 30 31 31 32 32 33 35 36 37 38 39 40 41 41 43 47 51 53 54 59 67 75 79 81 82 82 84 87 88 91 95 99 104
358 -0 2 3 5 6 6 5 5 4 3 3 5 8 9 9 9 9 11 12 15 16 16 18 21 23 24 24 24 26 28 30 31 32 32 32 33 35 36 37 38 39 40 40 40 42 45 48 52 55 61 71 80 84 83 81 81 82 82 85 88 91 94
359 1 2 3 4 5 6 6 5 4 3 3 4 7 9 10 9 9 10 12 13 14 15 16 19 22 23 23 23 24 26 29 30 30 31 32 32 32 33 34 36 38 39 41 41 41 41 42 46 49 53 60 71 81 87 87 86 84 82 82 84 86 85
359 1 2 3 3 5 6 6 5 4 3 3 4 6 9 11 11 10 10 11 12 12 13 13 16 20 21 21 22 22 24 26 29 29 30 31 32 32 31 31 33 35 37 39 41 42 41 41 41 43 45 48 54 65 76 83 85 83 80 79 81 80 76
358 -0 2 2 3 5 6 5 4 3 3 3 3 5 8 10 12 11 10 10 10 10 11 12 13 17 18 19 20 21 22 24 26 28 29 30 32 33 32 31 31 32 33 36 38 40 41 41 41 40 39 39 39 43 51 62 71 71 65 61 63 64 62
358 359 1 2 3 5 6 5 4 3 2 3 3 4 6 9 12 12 11 10 9 8 9 10 10 12 15 17 17 18 19 21 23 25 27 28 29 31 32 32 32 31 32 32 34 36 38 39 40 40 39 37 34 31 30 33 43 52 48 40 37 34 34
356 358 360 2 3 5 5 4 3 2 3 3 2 3 6 8 10 12 12 10 8 7 8 8 8 8 10 13 15 15 16 17 20 22 24 25 26 27 29 31 31 31 32 31 31 31 33 34 36 37 37 37 35 32 26 16 8 5 357 351 351 339 331
355 357 359 1 3 4 4 4 3 3 4 3 2 3 5 7 9 11 12 11 9 6 6 6 6 6 6 8 11 13 13 13 15 18 20 21 23 24 25 27 28 29 30 30 30 30 29 30 30 31 32 33 34 33 30 24 11 347 319 305 298 293 292
354 356 359 1 2 2 3 3 3 4 5 4 3 4 5 6 7 8 10 11 10 7 5 5 5 4 3 4 6 9 10 9 10 13 16 18 19 21 22 23 24 25 26 27 28 28 28 28 26 26 26 28 29 30 29 26 21 9 338 300 286 281 280
354 356 358 360 -0 1 2 2 2 4 6 5 4 5 5 5 6 6 7 9 9 8 6 4 3 3 2 1 1 3 5 6 6 7 10 13 15 17 18 19 19 20 21 23 24 24 25 25 25 22 21 21 23 24 24 24 22 18 7 336 293 275 272
353 355 358 358 359 0 1 1 2 5 6 6 6 5 5 4 4 4 4 5 6 7 7 4 2 2 1 0 359 358 359 0 2 3 4 8 11 12 14 15 16 16 17 18 19 20 20 21 21 21 18 17 17 17 17 18 19 17 13 2 334 288 268
352 354 356 356 357 359 359 0 2 4 6 7 6 6 5 3 2 2 2 3 3 5 5 4 3 1 360 359 358 356 355 354 356 358 358 1 6 8 9 10 11 12 12 13 15 16 16 15 16 17 16 14 13 12 12 12 12 13 12 8 357 327 277
351 352 354 354 356 357 358 359 1 3 6 6 6 6 4 2 1 0 0 1 1 1 1 2 2 0 359 357 356 355 353 351 351 352 353 355 360 3 4 4 5 7 8 9 10 11 12 12 11 12 13 12 11 10 8 8 8 8 8 7 3 351 311
350 350 351 352 353 354 355 357 359 2 4 5 5 5 4 2 1 360 359 358 358 357 358 358 359 359 357 355 353 352 352 350 348 347 347 348 352 356 358 358 359 -0 2 4 5 5 6 8 7 8 9 8 7 6 6 6 6 6 5 5 4 359 340
348 348 347 348 350 351 352 354 356 359 1 3 4 4 3 3 2 360 358 357 356 355 355 356 358 358 355 352 350 349 349 349 346 344 343 343 345 349 351 351 352 354 356 358 -0 0 1 2 2 4 4 4 3 3 3 3 3 4 4 3 2 0 352
347 346 344 344 346 348 349 351 353 355 357 359 1 2 2 2 2 0 358 356 355 355 354 355 357 357 355 353 349 347 347 347 346 344 341 340 339 341 343 344 344 346 350 353 356 357 357 356 357 358 359 359 0 1 1 1 0 1 2 2 1 360 355
345 345 342 341 342 344 346 348 349 351 353 355 357 359 1 1 1 0 358 356 355 355 354 354 355 356 356 355 351 347 345 346 346 344 341 338 336 335 336 337 337 339 343 347 350 353 354 352 352 353 354 355 356 357 359 359 358 358 -0 1 -0 358 356
344 344 341 338 338 340 342 344 346 348 349 351 354 356 358 359 360 359 358 356 356 356 355 354 355 357 359 358 353 348 345 344 344 343 341 337 334 332 331 331 331 332 336 339 342 347 350 350 349 348 349 350 351 354 358 357 356 357 359 360 359 358 356
343 344 341 337 336 338 339 341 343 346 347 348 351 353 355 356 357 357 357 356 356 356 355 354 355 357 360 0 357 351 345 343 342 341 340 338 334 330 328 328 327 328 330 332 334 338 343 345 346 346 345 346 347 350 354 355 355 357 358 359 359 358 356
Height
5770 5767 5763 5760 5756 5752 5748 5744 5740 5735 5731 5727 5722 5718 5713 5708 5704 5699 5693 5689 5684 5678 5672 5666 5660 5653 5646 5640 5633 5628 5623 5618 5613 5609 5604 5600 5596 5593 5590 5586 5582 5578 5574 5571 5570 5569 5568 5568 5567 5566 5566 5566 5566 5568 5569 5569 5571 5573 5575 5578 5581 5585 5588
5770 5766 5762 5759 5755 5751 5747 5743 5739 5735 5730 5726 5721 5717 5713 5708 5703 5698 5693 5689 5684 5678 5672 5666 5659 5652 5646 5640 5633 5628 5623 5618 5614 5610 5605 5601 5598 5595 5591 5588 5584 5580 5577 5574 5572 5571 5571 5570 5570 5569 5569 5569 5569 5570 5571 5572 5574 5575 5578 5581 5584 5587 5590
5769 5766 5762 5758 5754 5750 5746 5742 5738 5734 5730 5725 5721 5716 5712 5708 5703 5698 5693 5689 5683 5678 5672 5666 5660 5653 5646 5640 5633 5628 5623 5619 5615 5611 5607 5603 5599 5596 5593 5590 5587 5583 5580 5578 5576 5575 5574 5573 5573 5572 5572 5572 5572 5573 5574 5574 5576 5578 5580 5583 5586 5589 5592
5769 5765 5761 5757 5753 5750 5746 5742 5738 5734 5729 5725 5720 5716 5712 5707 5703 5698 5694 5689 5683 5678 5673 5667 5660 5653 5647 5640 5634 5628 5624 5620 5616 5612 5608 5604 5601 5598 5595 5592 5589 5585 5583 5582 5580 5579 5578 5576 5575 5575 5575 5575 5575 5576 5576 5577 5578 5580 5582 5585 5588 5590 5593
5769 5765 5761 5757 5753 5749 5746 5742 5738 5733 5729 5724 5720 5716 5712 5707 5703 5698 5694 5689 5684 5679 5674 5668 5661 5654 5648 5642 5635 5630 5625 5621 5617 5613 5609 5606 5602 5599 5596 5593 5590 5588 5586 5584 5582 5581 5580 5579 5578 5577 5577 5578 5579 5579 5579 5579 5581 5583 5585 5588 5591 5592 5595
5769 5765 5761 5757 5753 5749 5746 5742 5738 5733 5728 5724 5720 5716 5712 5707 5703 5699 5694 5689 5684 5679 5675 5669 5662 5655 5649 5644 5638 5632 5627 5623 5618 5614 5610 5607 5604 5601 5597 5594 5591 5589 5588 5586 5584 5583 5582 5582 5581 5580 5580 5580 5581 5581 5582 5582 5583 5585 5587 5590 5593 5595 5597
5769 5765 5761 5757 5752 5749 5745 5742 5738 5733 5728 5724 5720 5716 5712 5708 5704 5700 5695 5690 5685 5680 5676 5670 5663 5657 5651 5645 5640 5634 5629 5624 5619 5615 5612 5609 5606 5602 5598 5595 5592 5590 5589 5588 5587 5585 5585 5584 5583 5583 5584 5583 5583 5584 5584 5585 5586 5588 5589 5591 5594 5596 5598
5769 5765 5761 5756 5752 5749 5745 5742 5737 5733 5728 5724 5720 5716 5712 5708 5704 5700 5695 5690 5686 5681 5677 5671 5665 5659 5653 5647 5643 5637 5632 5626 5621 5617 5613 5610 5607 5604 5600 5597 5595 5592 5591 5591 5590 5589 5588 5587 5586 5587 5587 5587 5587 5588 5588 5589 5589 5590 5591 5592 5594 5596 5598
5768 5764 5760 5756 5752 5749 5745 5741 5737 5733 5729 5724 5720 5716 5712 5708 5704 5700 5696 5692 5687 5683 5678 5673 5667 5661 5655 5650 5645 5640 5635 5629 5624 5619 5615 5612 5610 5607 5603 5600 5598 5596 5594 5593 5593 5593 5592 5591 5591 5591 5591 5592 5592 5592 5593 5593 5593 5594 5594 5594 5596 5597 5599
5768 5764 5760 5756 5752 5749 5745 5741 5737 5733 5729 5724 5720 5716 5713 5709 5705 5701 5697 5693 5689 5684 5680 5675 5670 5663 5657 5652 5648 5643 5637 5632 5627 5622 5617 5614 5612 5609 5607 5605 5603 5600 5599 5598 5597 5596 5596 5595 5595 5595 5595 5595 5596 5596 5597 5597 5597 5597 5597 5597 5598 5600 5602
5768 5764 5760 5756 5752 5749 5745 5741 5738 5734 5729 5725 5721 5717 5713 5709 5706 5702 5698 5694 5690 5686 5682 5677 5672 5666 5660 5655 5650 5646 5640 5635 5630 5625 5620 5617 5614 5612 5610 5609 5607 5606 5604 5603 5602 5601 5600 5599 5598 5598 5598 5599 5599 5599 5600 5600 5600 5600 5600 5601 5602 5604 5605
5768 5764 5760 5756 5752 5749 5745 5741 5738 5734 5730 5725 5721 5717 5714 5710 5706 5703 5699 5695 5692 5688 5684 5680 5675 5669 5664 5658 5653 5649 5644 5639 5635 5630 5625 5621 5618 5615 5614 5612 5611 5611 5609 5608 5607 5605 5604 5603 5602 5602 5602 5602 5602 5602 5601 5601 5602 5603 5603 5604 5606 5607 5608
5767 5764 5760 5756 5753 5749 5745 5742 5738 5734 5730 5726 5722 5718 5714 5711 5707 5704 5700 5697 5693 5690 5686 5682 5677 5672 5667 5662 5657 5653 5647 5643 5639 5634 5630 5626 5622 5620 5618 5616 5615 5614 5612 5611 5610 5608 5607 5607 5606 5606 5605 5605 5604 5604 5603 5603 5604 5606 5607 5608 5609 5610 5611
5767 5764 5760 5756 5753 5749 5745 5742 5738 5734 5731 5726 5723 5719 5715 5712 5708 5705 5702 5698 5695 5691 5688 5684 5680 5675 5671 5666 5661 5657 5652 5647 5643 5638 5634 5631 5627 5624 5622 5621 5619 5617 5615 5614 5613 5611 5611 5610 5610 5609 5608 5607 5606 5606 5605 5606 5607 5608 5610 5611 5612 5613 5613
5767 5763 5760 5756 5753 5749 5746 5742 5738 5735 5731 5727 5723 5720 5716 5713 5709 5706 5703 5699 5696 5693 5690 5687 5683 5678 5674 5670 5665 5661 5656 5652 5648 5643 5639 5635 5631 5628 5626 5625 5623 5621 5619 5618 5617 5616 5615 5613 5613 5612 5611 5610 5609 5609 5609 5610 5611 5612 5613 5614 5615 5616 5616
5767 5763 5760 5756 5753 5749 5746 5742 5739 5735 5732 5728 5724 5721 5717 5714 5710 5707 5704 5701 5698 5695 5692 5689 5685 5681 5677 5673 5669 5665 5661 5657 5653 5649 5645 5641 5636 5633 5630 5629 5628 5626 5624 5622 5621 5620 5619 5618 5617 5616 5615 5614 5613 5613 5614 5614 5615 5615 5616 5617 5618 5618 5619
5766 5763 5760 5756 5753 5749 5746 5743 5739 5736 5732 5729 5725 5722 5718 5715 5711 5708 5705 5702 5699 5697 5694 5691 5687 5684 5680 5676 5673 5669 5665 5661 5658 5654 5650 5646 5642 5638 5635 5633 5631 5629 5628 5626 5625 5624 5623 5622 5621 5621 5620 5618 5617 5617 5617 5617 5618 5618 5618 5619 5620 5621 5621
5766 5763 5760 5756 5753 5750 5746 5743 5740 5736 5733 5729 5726 5723 5719 5716 5712 5709 5706 5703 5701 5698 5695 5693 5690 5686 5683 5679 5676 5673 5669 5666 5662 5658 5655 5651 5648 5644 5641 5638 5635 5633 5631 5630 5629 5627 5626 5625 5625 5624 5623 5622 5621 5620 5620 5620 5621 5621 5621 5622 5622 5623 5624
5766 5763 5760 5756 5753 5750 5747 5743 5740 5737 5734 5730 5727 5723 5720 5716 5713 5710 5707 5705 5702 5699 5697 5694 5691 5688 5685 5682 5679 5676 5672 5669 5666 5662 5659 5656 5652 5649 5646 5643 5640 5638 5636 5635 5633 5631 5630 5629 5629 5628 5628 5627 5626 5625 5624 5624 5624 5624 5624 5625 5625 5626 5626
5766 5763 5759 5756 5753 5750 5747 5744 5740 5737 5734 5731 5727 5724 5721 5717 5714 5711 5708 5706 5703 5700 5698 5696 5693 5690 5687 5685 5682 5679 5675 5672 5669 5666 5663 5659 5656 5653 5650 5648 5645 5643 5641 5639 5637 5635 5634 5633 5632 5632 5631 5631 5630 5630 5629 5629 5628 5628 5628 5628 5629 5629 5629
5766 5763 5759 5756 5753 5750 5747 5744 5741 5738 5735 5732 5728 5725 5722 5718 5715 5712 5709 5707 5704 5702 5699 5697 5694 5692 5689 5687 5684 5681 5678 5675 5672 5669 5666 5663 5660 5657 5654 5652 5650 5648 5646 5643 5641 5639 5637 5636 5636 5635 5634 5634 5633 5633 5633 5633 5632 5632 5632 5632 5631 5631 5631
5765 5762 5759 5756 5753 5750 5747 5744 5741 5738 5735 5732 5729 5726 5723 5720 5717 5714 5711 5708 5705 5703 5700 5698 5696 5693 5691 5689 5686 5683 5681 5677 5674 5672 5669 5666 5663 5660 5658 5655 5654 5652 5650 5647 5645 5643 5641 5640 5639 5638 5637 5636 5636 5635 5635 5634 5634 5634 5634 5634 5633 5633 5632
5764 5762 5759 5756 5753 5751 5748 5745 5742 5739 5736 5733 5730 5726 5723 5721 5717 5714 5712 5709 5706 5704 5701 5699 5697 5694 5692 5690 5688 5685 5683 5680 5677 5675 5672 5669 5667 5664 5662 5660 5657 5655 5652 5650 5648 5647 5645 5643 5642 5640 5639 5639 5638 5637 5636 5636 5635 5635 5635 5635 5634 5633 5633
5764 5761 5758 5756 5753 5751 5748 5745 5742 5739 5736 5733 5730 5727 5724 5721 5718 5715 5712 5710 5707 5705 5702 5700 5698 5695 5693 5691 5689 5687 5685 5682 5680 5677 5675 5672 5669 5667 5665 5663 5660 5658 5655 5653 5652 5650 5648 5646 5645 5643 5642 5641 5640 5639 5638 5638 5637 5636 5636 5636 5635 5634 5634
5763 5760 5758 5755 5753 5751 5748 5745 5743 5740 5737 5734 5731 5728 5724 5721 5718 5716 5713 5711 5708 5706 5703 5701 5699 5697 5695 5693 5691 5689 5687 5684 5682 5679 5677 5674 5672 5670 5667 5665 5663 5661 5658 5656 5654 5653 5651 5649 5647 5645 5644 5643 5641 5640 5640 5639 5638 5638 5637 5636 5636 5635 5635
5762 5759 5757 5755 5753 5750 5748 5745 5743 5740 5737 5734 5731 5728 5725 5722 5719 5716 5714 5711 5709 5707 5704 5702 5700 5698 5696 5694 5692 5690 5688 5686 5684 5681 5679 5677 5674 5672 5669 5667 5665 5663 5661 5659 5657 5655 5653 5651 5649 5647 5646 5644 5643 5642 5640 5640 5639 5638 5638 5637 5636 5636 5635
5761 5759 5756 5754 5752 5750 5748 5745 5743 5740 5737 5735 5732 5728 5725 5723 5720 5717 5714 5712 5710 5707 5705 5703 5701 5698 5696 5694 5692 5691 5689 5687 5685 5683 5681 5679 5676 5674 5671 5669 5667 5665 5663 5661 5659 5657 5655 5653 5651 5649 5647 5646 5644 5643 5641 5640 5639 5638 5637 5637 5636 5635 5634
5761 5758 5756 5754 5752 5750 5747 5745 5742 5740 5737 5735 5732 5729 5726 5723 5720 5717 5715 5712 5710 5708 5706 5703 5701 5699 5697 5695 5693 5691 5689 5688 5686 5684 5682 5680 5678 5676 5673 5671 5669 5666 5664 5662 5661 5659 5657 5655 5653 5651 5649 5647 5646 5644 5643 5641 5640 5638 5637 5636 5635 5634 5633
5760 5758 5756 5754 5752 5750 5747 5745 5742 5740 5737 5735 5732 5729 5726 5723 5721 5718 5715 5713 5711 5708 5706 5704 5701 5699 5697 5695 5693 5692 5690 5688 5686 5685 5683 5681 5679 5677 5675 5672 5670 5668 5666 5664 5662 5660 5658 5656 5655 5653 5651 5648 5647 5645 5643 5642 5640 5638 5636 5635 5634 5633 5632
5759 5757 5755 5753 5752 5749 5747 5745 5742 5740 5737 5735 5732 5729 5726 5724 5721 5719 5716 5713 5711 5708 5706 5704 5702 5700 5698 5695 5694 5692 5690 5688 5686 5685 5683 5681 5679 5677 5676 5673 5671 5669 5667 5665 5663 5661 5659 5658 5656 5654 5652 5650 5648 5646 5644 5642 5640 5638 5636 5634 5633 5631 5631
5758 5756 5755 5753 5751 5749 5747 5745 5743 5740 5737 5735 5732 5729 5726 5724 5721 5718 5716 5713 5711 5709 5707 5704 5702 5700 5698 5696 5694 5692 5690 5688 5686 5685 5683 5681 5680 5678 5676 5674 5672 5670 5668 5666 5664 5662 5660 5659 5657 5655 5652 5650 5648 5646 5644 5642 5640 5638 5636 5634 5632 5630 5629
5757 5756 5754 5752 5751 5749 5747 5745 5742 5740 5738 5735 5732 5730 5727 5724 5721 5718 5715 5713 5711 5709 5707 5704 5702 5700 5698 5695 5693 5691 5690 5688 5686 5685 5683 5681 5679 5678 5676 5674 5673 5671 5668 5667 5665 5663 5661 5659 5657 5655 5653 5651 5649 5647 5645 5643 5641 5638 5636 5634 5631 5629 5627
5757 5755 5753 5752 5750 5748 5746 5744 5742 5740 5738 5736 5733 5730 5727 5724 5721 5718 5715 5713 5711 5709 5706 5704 5702 5700 5697 5695 5693 5691 5689 5687 5686 5684 5682 5681 5679 5678 5676 5674 5673 5671 5669 5667 5665 5663 5661 5659 5658 5656 5654 5652 5649 5647 5645 5643 5641 5639 5636 5633 5631 5628 5625
5756 5754 5752 5751 5749 5748 5746 5744 5742 5740 5738 5735 5733 5730 5727 5724 5721 5719 5716 5713 5711 5708 5706 5704 5702 5699 5697 5694 5692 5690 5688 5687 5685 5683 5682 5680 5679 5677 5676 5674 5673 5671 5669 5667 5665 5663 5661 5660 5658 5656 5654 5652 5649 5647 5645 5643 5641 5638 5636 5633 5630 5627 5624
5755 5753 5751 5750 5748 5747 5745 5743 5741 5739 5737 5735 5733 5730 5727 5724 5722 5719 5716 5714 5711 5708 5706 5704 5702 5699 5696 5694 5691 5690 5688 5686 5684 5683 5681 5680 5678 5677 5675 5674 5672 5670 5669 5667 5665 5663 5661 5660 5658 5656 5654 5652 5650 5647 5645 5643 5640 5638 5636 5633 5630 5627 5623
5754 5752 5750 5749 5747 5746 5744 5742 5740 5738 5736 5734 5732 5730 5727 5724 5721 5719 5716 5713 5711 5709 5706 5704 5702 5699 5696 5693 5691 5689 5687 5686 5684 5682 5681 5679 5678 5676 5675 5673 5672 5670 5668 5666 5665 5663 5661 5659 5658 5656 5654 5652 5650 5647 5645 5643 5640 5638 5635 5632 5629 5626 5622
5753 5751 5749 5748 5746 5745 5743 5741 5739 5737 5735 5733 5731 5729 5726 5724 5721 5718 5716 5713 5711 5708 5706 5704 5702 5699 5697 5694 5691 5689 5687 5685 5683 5682 5680 5679 5677 5675 5674 5672 5671 5669 5667 5666 5664 5662 5660 5659 5657 5655 5653 5651 5649 5647 5645 5642 5640 5637 5635 5632 5629 5625 5621